{"data":{"norad_id":64792,"intl_designator":"2025-150C","name":"STARLINK-34632","alt_names":[],"object_type":"PAYLOAD","status":"ACTIVE","operator":null,"country":"US","launch_date":"2025-07-16","launch_site_code":"AFWTR","launch_vehicle":null,"mission":null,"orbit_class":"UNKNOWN","rcs_meters":null,"size_class":null,"mass_kg":null,"dimensions":null,"purposes":["comms"],"wikipedia_slug":null,"has_3d_model":false,"image_url":null,"decayed_at":null,"tle_current":{"epoch":"2026-05-24T15:38:29.796000Z","epoch_age_seconds":101051,"freshness":"FRESH","line1":"1 64792U 25150C   26144.65173375  .00003582  00000+0  30776-3 0  9998","line2":"2 64792  70.0003 302.8703 0002827 264.1668  95.9169 14.98337194 47891","mean_motion":14.98337194,"eccentricity":0.0002827,"inclination_deg":70.0003,"raan_deg":302.8703,"arg_perigee_deg":264.1668,"mean_anomaly_deg":95.9169,"bstar":0.00030776,"rev_number":4789,"period_min":96.106537685001,"perigee_km":570.06883094075,"apogee_km":573.99845742297,"semimajor_km":6950.1706441819,"source":"CELESTRAK","updated_at":"2026-05-25T13:38:20.562685Z"}}}